Terug naar catalogus

STARLINK-36373

ActiefCommunicatieSSO
NORAD 68039·PAYLOAD·🇺🇸 United States

Gelanceerd Mar 1, 2026 vanaf Vandenberg Space Force Base

Loading…

Volgende Passages (komende 24 uur)

TLE

VersSource: CelesTrak SupGP

Epoch: Sep 14, 2026, 23:28 UTC

1 68039C 26040AA  26257.97826389 -.00079784  00000+0 -24805-2 0  2576
2 68039  97.2852 205.4152 0002175  91.2945 249.1810 15.33429207    17

Volg STARLINK-36373 in realtime met AllMySat

Download on the App Store